This is the latest recevied weather packets stored in our database for station/object KE8WAY. If no packets are shown the sender has not sent any weather packets the latest 10 day(s).
| Time | Temp. | Humidity | Pressure | Rain* | Wind** | Luminosity | Snow |
|---|---|---|---|---|---|---|---|
| 1778125054 | 8.33° C | 73% | 1012.5 hPa | 0 mm | - | 0 W/m² | - |
| 1778124751 | 8.33° C | 75% | 1012.7 hPa | 0 mm | - | 0 W/m² | - |
| 1778124449 | 8.89° C | 72% | 1012.9 hPa | 0 mm | - | 0 W/m² | - |
| 1778124144 | 8.89° C | 69% | 1012.7 hPa | 0 mm | - | 0 W/m² | - |
| 1778123841 | 9.44° C | 70% | 1012.8 hPa | 0 mm | - | 0 W/m² | - |
| 1778123538 | 9.44° C | 69% | 1012.9 hPa | 0 mm | - | 0 W/m² | - |
| 1778123235 | 9.44° C | 67% | 1012.8 hPa | 0 mm | - | 0 W/m² | - |
| 1778122932 | 9.44° C | 68% | 1012.8 hPa | 0 mm | - | 0 W/m² | - |
| 1778122629 | 10° C | 66% | 1013 hPa | 0 mm | - | 0 W/m² | - |
| 1778122326 | 10° C | 67% | 1013 hPa | 0 mm | - | 0 W/m² | - |
| 1778122024 | 10° C | 64% | 1013 hPa | 0 mm | - | 0 W/m² | - |
| 1778121721 | 10° C | 66% | 1012.9 hPa | 0 mm | - | 0 W/m² | - |
| 1778121416 | 10° C | 65% | 1012.8 hPa | 0 mm | - | 0 W/m² | - |
| 1778121114 | 10° C | 63% | 1012.7 hPa | 0 mm | - | 0 W/m² | - |
| 1778120811 | 10° C | 62% | 1012.9 hPa | 0 mm | - | 0 W/m² | - |
| 1778120507 | 10° C | 64% | 1013 hPa | 0 mm | - | 0 W/m² | - |
| 1778120203 | 10° C | 62% | 1012.8 hPa | 0 mm | - | 0 W/m² | - |
| 1778119898 | 10.56° C | 62% | 1012.9 hPa | 0 mm | - | 0 W/m² | - |
| 1778119597 | 10.56° C | 62% | 1012.9 hPa | 0 mm | - | 0 W/m² | - |
| 1778119293 | 10.56° C | 60% | 1012.8 hPa | 0 mm | - | 0 W/m² | - |
| 1778118992 | 10° C | 64% | 1012.5 hPa | 0 mm | - | 0 W/m² | - |
| 1778118689 | 10.56° C | 61% | 1012.5 hPa | 0 mm | - | 0 W/m² | - |
| 1778118385 | 10.56° C | 61% | 1012.6 hPa | 0 mm | - | 0 W/m² | - |
| 1778118081 | 10.56° C | 59% | 1012.5 hPa | 0 mm | - | 0 W/m² | - |
| 1778117778 | 10.56° C | 58% | 1012.3 hPa | 0 mm | - | 0 W/m² | - |
* Rain latest hour (hover to see other rain measurements)
** Current wind speed in m/s (hover to see current wind gust speed)